Погода в Курми

Россия / Республика Дагестан     42°27′57″N   47°02′32″E
темп.,
°C
ветер,
м/с
пор.,
м/с
влажн.,
%
обл.,
%
осадки,
мм/ч
давл.,
гПа
погр.,
м
26 июня, вс
вс2600:00+14ююз3391100 0.1 101042
03:00+13ю2291100 5.3 101126
06:00+15ююв1285100 1.7 1009116
09:00+19св226598 1.7 1006474
12:00+21всв226098 1.3 1006963
15:00+21ссв4372100 2.1 1006804
18:00+19ссв3381100 0.8 1006471
21:00+15ссз2294100 4.1 100930
27 июня, пн
пн2700:00+15зюз1193100 0.0 101014
03:00+13зюз22900 0.0 101014
06:00+15зюз11750 0.0 101085
09:00+20ссв11600 0.0 1009575
12:00+24св22555 0.0 10081374
15:00+23св336495 0.9 10091131
18:00+20всв127570 1.8 1010196
21:00+16зсз2286100 1.8 101117
28 июня, вт
вт2800:00+15з2289100 0.1 101115
03:00+14зсз22905 0.2 101125
06:00+16з22850 0.0 1011157
09:00+21сз33680 0.0 1009852
12:00+23св435942 0.0 10091364
15:00+21ссв336289 0.5 10111101
18:00+19ссв117197 0.4 1013198
21:00+14св227862 0.4 101531
29 июня, ср
ср2900:00+12ююз117835 0.0 101611
03:00+12юв11852 0.0 101511
06:00+14юв11802 0.0 101593
09:00+19всв22592 0.0 10141006
12:00+21всв335387 0.3 10131542
15:00+21в125276 1.3 10131431
18:00+20св226380 0.2 1013299
21:00+14юв119088 1.7 101615
30 июня, чт
чт3000:00+14зюз0189100 0.0 101611
03:00+13юв118939 0.0 101510
06:00+14в11855 0.0 1015128
09:00+18св226913 0.0 1013769
12:00+20ссв437385 0.1 1013791
15:00+17св3382100 1.6 1014680
18:00+15с2289100 2.6 1015357
21:00+14сз119499 5.3 101785